カタログに戻る

MIDAS 3 DEB

運用中PO
NORAD 196·DEBRIS·🇺🇸 United States

打ち上げ Jul 12, 1961 から Vandenberg Space Force Base

Loading…

次のパス (今後24時間)

TLE

最新Source: Space-Track

元期: Sep 14, 2026, 06:12 UTC

1 00196U 61018D   26257.25854876 -.00000002  00000-0 -12363-2 0  9990
2 00196  91.1313 207.2454 0087470 217.8193 141.6509  8.89679700116577

AllMySatでMIDAS 3 DEBをリアルタイム追跡

Download on the App Store